Wetterdaten: Samstag, 02.06.2007
Datum Zeit Temp. A. Feuchte A. Luftdruck Regen Wind Richtung Richtung Sonnenschein UV Solar Windben
02.06.2007 00:00 15,0 C 77 % 1018,3 hPa 0,0 mm 0,0 km/h (0 Bft) N 0 0 min 0 UV-I 0 W/m 0,0 km/h (0 Bft)
02.06.2007 00:10 15,0 C 79 % 1018,4 hPa 0,0 mm 0,0 km/h (0 Bft) N 0 0 min 0 UV-I 0 W/m 0,0 km/h (0 Bft)
02.06.2007 00:20 14,8 C 80 % 1018,3 hPa 0,0 mm 0,0 km/h (0 Bft) N 0 0 min 0 UV-I 0 W/m 0,0 km/h (0 Bft)
02.06.2007 00:30 14,6 C 80 % 1018,4 hPa 0,0 mm 0,0 km/h (0 Bft) N 0 0 min 0 UV-I 0 W/m 0,0 km/h (0 Bft)
02.06.2007 00:40 14,3 C 81 % 1018,6 hPa 0,0 mm 0,0 km/h (0 Bft) N 0 0 min 0 UV-I 0 W/m 0,0 km/h (0 Bft)
02.06.2007 00:50 14,1 C 81 % 1018,8 hPa 0,0 mm 0,0 km/h (0 Bft) N 0 0 min 0 UV-I 0 W/m 0,0 km/h (0 Bft)
02.06.2007 01:00 13,8 C 82 % 1018,8 hPa 0,0 mm 0,0 km/h (0 Bft) N 0 0 min 0 UV-I 0 W/m 0,0 km/h (0 Bft)
02.06.2007 01:10 13,8 C 82 % 1018,7 hPa 0,0 mm 0,0 km/h (0 Bft) N 0 0 min 0 UV-I 0 W/m 0,0 km/h (0 Bft)
02.06.2007 01:20 13,7 C 82 % 1018,8 hPa 0,0 mm 0,0 km/h (0 Bft) N 0 0 min 0 UV-I 0 W/m 0,0 km/h (0 Bft)
02.06.2007 01:30 13,4 C 83 % 1019,0 hPa 0,0 mm 0,0 km/h (0 Bft) N 0 0 min 0 UV-I 0 W/m 0,0 km/h (0 Bft)
02.06.2007 01:40 13,3 C 84 % 1019,0 hPa 0,0 mm 0,0 km/h (0 Bft) N 0 0 min 0 UV-I 0 W/m 0,0 km/h (0 Bft)
02.06.2007 01:50 13,2 C 84 % 1019,1 hPa 0,0 mm 0,0 km/h (0 Bft) N 0 0 min 0 UV-I 0 W/m 0,0 km/h (0 Bft)
02.06.2007 02:00 13,2 C 84 % 1019,2 hPa 0,0 mm 0,0 km/h (0 Bft) N 0 0 min 0 UV-I 0 W/m 0,0 km/h (0 Bft)
02.06.2007 02:10 13,0 C 84 % 1019,2 hPa 0,0 mm 0,0 km/h (0 Bft) N 0 0 min 0 UV-I 0 W/m 0,0 km/h (0 Bft)
02.06.2007 02:20 13,0 C 84 % 1019,3 hPa 0,0 mm 0,0 km/h (0 Bft) N 0 0 min 0 UV-I 0 W/m 0,0 km/h (0 Bft)
02.06.2007 02:30 12,7 C 85 % 1019,4 hPa 0,0 mm 0,0 km/h (0 Bft) N 0 0 min 0 UV-I 0 W/m 0,0 km/h (0 Bft)
02.06.2007 02:40 12,7 C 85 % 1019,4 hPa 0,0 mm 0,0 km/h (0 Bft) N 0 0 min 0 UV-I 0 W/m 0,0 km/h (0 Bft)
02.06.2007 02:50 12,7 C 85 % 1019,4 hPa 0,0 mm 0,0 km/h (0 Bft) N 0 0 min 0 UV-I 0 W/m 0,0 km/h (0 Bft)
02.06.2007 03:00 12,8 C 84 % 1019,4 hPa 0,0 mm 0,0 km/h (0 Bft) N 0 0 min 0 UV-I 0 W/m 0,0 km/h (0 Bft)
02.06.2007 03:10 12,9 C 84 % 1019,5 hPa 0,0 mm 0,0 km/h (0 Bft) N 0 0 min 0 UV-I 0 W/m 0,0 km/h (0 Bft)
02.06.2007 03:20 13,0 C 84 % 1019,6 hPa 0,0 mm 0,0 km/h (0 Bft) N 0 0 min 0 UV-I 0 W/m 0,0 km/h (0 Bft)
02.06.2007 03:30 13,1 C 84 % 1019,6 hPa 0,0 mm 0,0 km/h (0 Bft) N 0 0 min 0 UV-I 0 W/m 0,0 km/h (0 Bft)
02.06.2007 03:40 13,1 C 84 % 1019,7 hPa 0,0 mm 0,0 km/h (0 Bft) N 0 0 min 0 UV-I 0 W/m 0,0 km/h (0 Bft)
02.06.2007 03:50 13,1 C 84 % 1019,7 hPa 0,0 mm 0,0 km/h (0 Bft) N 0 0 min 0 UV-I 0 W/m 0,0 km/h (0 Bft)
02.06.2007 04:00 12,9 C 84 % 1019,8 hPa 0,0 mm 0,0 km/h (0 Bft) N 0 0 min 0 UV-I 0 W/m 0,0 km/h (0 Bft)
02.06.2007 04:10 12,9 C 84 % 1019,7 hPa 0,0 mm 0,0 km/h (0 Bft) N 0 0 min 0 UV-I 0 W/m 0,0 km/h (0 Bft)
02.06.2007 04:20 12,8 C 84 % 1019,8 hPa 0,0 mm 0,0 km/h (0 Bft) N 0 0 min 0 UV-I 0 W/m 0,0 km/h (0 Bft)
02.06.2007 04:30 12,8 C 85 % 1019,9 hPa 0,0 mm 0,0 km/h (0 Bft) N 0 0 min 0 UV-I 0 W/m 0,0 km/h (0 Bft)
02.06.2007 04:40 12,8 C 85 % 1019,9 hPa 0,0 mm 0,0 km/h (0 Bft) N 0 0 min 0 UV-I 0 W/m 0,0 km/h (0 Bft)
02.06.2007 04:50 12,7 C 85 % 1020,0 hPa 0,0 mm 0,0 km/h (0 Bft) N 0 0 min 0 UV-I 0 W/m 0,0 km/h (0 Bft)
02.06.2007 05:00 12,7 C 85 % 1020,1 hPa 0,0 mm 0,0 km/h (0 Bft) N 0 0 min 0 UV-I 0 W/m 0,0 km/h (0 Bft)
02.06.2007 05:10 12,7 C 85 % 1020,1 hPa 0,0 mm 0,0 km/h (0 Bft) N 0 0 min 0 UV-I 0 W/m 0,0 km/h (0 Bft)
02.06.2007 05:20 12,8 C 85 % 1020,2 hPa 0,0 mm 0,0 km/h (0 Bft) N 0 0 min 0 UV-I 5 W/m 0,0 km/h (0 Bft)
02.06.2007 05:30 12,8 C 85 % 1020,3 hPa 0,0 mm 0,0 km/h (0 Bft) N 0 10 min 0 UV-I 14 W/m 0,0 km/h (0 Bft)
02.06.2007 05:40 12,7 C 85 % 1020,4 hPa 0,0 mm 0,0 km/h (0 Bft) N 0 0 min 0 UV-I 25 W/m 0,0 km/h (0 Bft)
02.06.2007 05:50 12,7 C 85 % 1020,3 hPa 0,0 mm 0,0 km/h (0 Bft) N 0 0 min 0 UV-I 30 W/m 0,0 km/h (0 Bft)
02.06.2007 06:00 12,7 C 85 % 1020,3 hPa 0,0 mm 0,0 km/h (0 Bft) N 0 0 min 0 UV-I 35 W/m 0,0 km/h (0 Bft)
02.06.2007 06:10 12,8 C 85 % 1020,4 hPa 0,0 mm 0,0 km/h (0 Bft) N 0 0 min 0 UV-I 53 W/m 0,0 km/h (0 Bft)
02.06.2007 06:20 13,0 C 84 % 1020,4 hPa 0,0 mm 0,0 km/h (0 Bft) N 0 0 min 0 UV-I 62 W/m 0,0 km/h (0 Bft)
02.06.2007 06:30 13,1 C 84 % 1020,5 hPa 0,0 mm 0,0 km/h (0 Bft) N 0 0 min 0 UV-I 56 W/m 0,0 km/h (0 Bft)
02.06.2007 06:40 13,2 C 84 % 1020,6 hPa 0,0 mm 0,0 km/h (0 Bft) N 0 0 min 0 UV-I 60 W/m 0,0 km/h (0 Bft)
02.06.2007 06:50 13,2 C 83 % 1020,7 hPa 0,0 mm 0,0 km/h (0 Bft) N 0 0 min 0 UV-I 62 W/m 0,0 km/h (0 Bft)
02.06.2007 07:00 13,2 C 84 % 1020,7 hPa 0,0 mm 0,0 km/h (0 Bft) N 0 0 min 0 UV-I 77 W/m 0,0 km/h (0 Bft)
02.06.2007 07:10 13,2 C 84 % 1020,8 hPa 0,0 mm 0,0 km/h (0 Bft) N 0 0 min 0 UV-I 107 W/m 0,0 km/h (0 Bft)
02.06.2007 07:20 13,4 C 83 % 1020,9 hPa 0,0 mm 0,0 km/h (0 Bft) N 0 10 min 0 UV-I 195 W/m 0,0 km/h (0 Bft)
02.06.2007 07:30 13,7 C 82 % 1020,9 hPa 0,0 mm 0,0 km/h (0 Bft) N 0 0 min 1 UV-I 148 W/m 0,0 km/h (0 Bft)
02.06.2007 07:40 14,1 C 82 % 1021,0 hPa 0,0 mm 0,0 km/h (0 Bft) N 0 10 min 1 UV-I 227 W/m 0,0 km/h (0 Bft)
02.06.2007 07:50 14,4 C 82 % 1021,0 hPa 0,0 mm 0,0 km/h (0 Bft) N 0 10 min 1 UV-I 223 W/m 0,0 km/h (0 Bft)
02.06.2007 08:00 14,4 C 81 % 1021,0 hPa 0,0 mm 0,0 km/h (0 Bft) N 0 10 min 1 UV-I 297 W/m 0,0 km/h (0 Bft)
02.06.2007 08:10 14,8 C 80 % 1021,1 hPa 0,0 mm 0,0 km/h (0 Bft) N 0 10 min 1 UV-I 323 W/m 0,0 km/h (0 Bft)
02.06.2007 08:20 15,5 C 79 % 1021,3 hPa 0,0 mm 0,0 km/h (0 Bft) N 0 10 min 1 UV-I 394 W/m 0,0 km/h (0 Bft)
02.06.2007 08:30 16,2 C 76 % 1021,3 hPa 0,0 mm 0,0 km/h (0 Bft) N 0 10 min 1 UV-I 404 W/m 0,0 km/h (0 Bft)
02.06.2007 08:40 16,8 C 74 % 1021,3 hPa 0,0 mm 0,0 km/h (0 Bft) N 0 10 min 2 UV-I 392 W/m 0,0 km/h (0 Bft)
02.06.2007 08:50 17,4 C 69 % 1021,3 hPa 0,0 mm 0,0 km/h (0 Bft) N 0 10 min 2 UV-I 431 W/m 0,0 km/h (0 Bft)
02.06.2007 09:00 17,8 C 68 % 1021,4 hPa 0,0 mm 0,0 km/h (0 Bft) N 0 10 min 2 UV-I 446 W/m 0,0 km/h (0 Bft)
02.06.2007 09:10 18,4 C 65 % 1021,5 hPa 0,0 mm 0,0 km/h (0 Bft) N 0 10 min 2 UV-I 473 W/m 0,0 km/h (0 Bft)
02.06.2007 09:20 18,9 C 59 % 1021,6 hPa 0,0 mm 1,6 km/h (1 Bft) O 90 10 min 2 UV-I 499 W/m 4,8 km/h (1 Bft)
02.06.2007 09:30 19,2 C 59 % 1021,5 hPa 0,0 mm 0,0 km/h (0 Bft) O-SO 112 10 min 3 UV-I 545 W/m 6,4 km/h (2 Bft)
02.06.2007 09:40 19,4 C 57 % 1021,6 hPa 0,0 mm 1,6 km/h (1 Bft) SW 225 10 min 3 UV-I 654 W/m 6,4 km/h (2 Bft)
02.06.2007 09:50 19,5 C 56 % 1021,7 hPa 0,0 mm 3,2 km/h (1 Bft) O 90 10 min 3 UV-I 654 W/m 6,4 km/h (2 Bft)
02.06.2007 10:00 19,7 C 56 % 1021,7 hPa 0,0 mm 1,6 km/h (1 Bft) O-NO 67 10 min 3 UV-I 615 W/m 9,7 km/h (2 Bft)
02.06.2007 10:10 19,6 C 53 % 1021,8 hPa 0,0 mm 3,2 km/h (1 Bft) O-NO 67 10 min 3 UV-I 534 W/m 8,0 km/h (2 Bft)
02.06.2007 10:20 19,8 C 54 % 1021,8 hPa 0,0 mm 3,2 km/h (1 Bft) O 90 10 min 4 UV-I 791 W/m 8,0 km/h (2 Bft)
02.06.2007 10:30 19,9 C 53 % 1021,9 hPa 0,0 mm 3,2 km/h (1 Bft) O-NO 67 10 min 4 UV-I 568 W/m 16,1 km/h (3 Bft)
02.06.2007 10:40 20,0 C 54 % 1022,0 hPa 0,0 mm 1,6 km/h (1 Bft) O-NO 67 10 min 4 UV-I 817 W/m 4,8 km/h (1 Bft)
02.06.2007 10:50 20,2 C 55 % 1022,0 hPa 0,0 mm 3,2 km/h (1 Bft) O-NO 67 10 min 4 UV-I 763 W/m 8,0 km/h (2 Bft)
02.06.2007 11:00 20,0 C 57 % 1022,0 hPa 0,0 mm 3,2 km/h (1 Bft) O-NO 67 10 min 4 UV-I 547 W/m 6,4 km/h (2 Bft)
02.06.2007 11:10 19,8 C 58 % 1022,1 hPa 0,0 mm 3,2 km/h (1 Bft) O-NO 67 10 min 4 UV-I 483 W/m 8,0 km/h (2 Bft)
02.06.2007 11:20 19,8 C 58 % 1022,0 hPa 0,0 mm 3,2 km/h (1 Bft) O-NO 67 10 min 3 UV-I 434 W/m 11,3 km/h (2 Bft)
02.06.2007 11:30 19,7 C 59 % 1022,1 hPa 0,0 mm 3,2 km/h (1 Bft) O 90 0 min 3 UV-I 424 W/m 9,7 km/h (2 Bft)
02.06.2007 11:40 19,8 C 59 % 1022,1 hPa 0,0 mm 1,6 km/h (1 Bft) O-NO 67 10 min 4 UV-I 482 W/m 9,7 km/h (2 Bft)
02.06.2007 11:50 19,8 C 60 % 1022,2 hPa 0,0 mm 3,2 km/h (1 Bft) O 90 10 min 4 UV-I 496 W/m 11,3 km/h (2 Bft)
02.06.2007 12:00 19,6 C 60 % 1022,2 hPa 0,0 mm 1,6 km/h (1 Bft) O-NO 67 0 min 3 UV-I 369 W/m 6,4 km/h (2 Bft)
02.06.2007 12:10 19,4 C 59 % 1022,2 hPa 0,0 mm 1,6 km/h (1 Bft) O 90 0 min 3 UV-I 371 W/m 9,7 km/h (2 Bft)
02.06.2007 12:20 19,4 C 59 % 1022,1 hPa 0,0 mm 1,6 km/h (1 Bft) O-NO 67 0 min 4 UV-I 434 W/m 4,8 km/h (1 Bft)
02.06.2007 12:30 19,6 C 58 % 1022,0 hPa 0,0 mm 1,6 km/h (1 Bft) O 90 10 min 7 UV-I 679 W/m 4,8 km/h (1 Bft)
02.06.2007 12:40 20,0 C 59 % 1022,0 hPa 0,0 mm 1,6 km/h (1 Bft) W-NW 292 10 min 5 UV-I 631 W/m 6,4 km/h (2 Bft)
02.06.2007 12:50 20,2 C 57 % 1022,1 hPa 0,0 mm 1,6 km/h (1 Bft) NW 315 10 min 6 UV-I 698 W/m 6,4 km/h (2 Bft)
02.06.2007 13:00 20,3 C 57 % 1022,0 hPa 0,0 mm 1,6 km/h (1 Bft) O-NO 67 10 min 6 UV-I 737 W/m 4,8 km/h (1 Bft)
02.06.2007 13:10 20,2 C 58 % 1022,0 hPa 0,0 mm 1,6 km/h (1 Bft) O 90 0 min 2 UV-I 279 W/m 6,4 km/h (2 Bft)
02.06.2007 13:20 19,9 C 59 % 1022,0 hPa 0,0 mm 1,6 km/h (1 Bft) O 90 0 min 2 UV-I 234 W/m 4,8 km/h (1 Bft)
02.06.2007 13:30 19,8 C 59 % 1022,0 hPa 0,0 mm 1,6 km/h (1 Bft) O 90 0 min 3 UV-I 348 W/m 6,4 km/h (2 Bft)
02.06.2007 13:40 20,1 C 59 % 1022,0 hPa 0,0 mm 1,6 km/h (1 Bft) O-SO 112 0 min 4 UV-I 425 W/m 6,4 km/h (2 Bft)
02.06.2007 13:50 20,6 C 58 % 1022,1 hPa 0,0 mm 1,6 km/h (1 Bft) O-SO 112 0 min 3 UV-I 455 W/m 4,8 km/h (1 Bft)
02.06.2007 14:00 20,5 C 59 % 1022,1 hPa 0,0 mm 3,2 km/h (1 Bft) O-SO 112 0 min 3 UV-I 432 W/m 6,4 km/h (2 Bft)
02.06.2007 14:10 20,8 C 58 % 1022,0 hPa 0,0 mm 1,6 km/h (1 Bft) O-NO 67 10 min 6 UV-I 554 W/m 6,4 km/h (2 Bft)
02.06.2007 14:20 20,8 C 57 % 1021,9 hPa 0,0 mm 1,6 km/h (1 Bft) W-NW 292 0 min 4 UV-I 429 W/m 4,8 km/h (1 Bft)
02.06.2007 14:30 20,8 C 58 % 1021,9 hPa 0,0 mm 1,6 km/h (1 Bft) NO 45 0 min 3 UV-I 383 W/m 9,7 km/h (2 Bft)
02.06.2007 14:40 20,7 C 57 % 1021,8 hPa 0,0 mm 3,2 km/h (1 Bft) O-NO 67 0 min 5 UV-I 454 W/m 8,0 km/h (2 Bft)
02.06.2007 14:50 20,6 C 59 % 1021,9 hPa 0,0 mm 3,2 km/h (1 Bft) NO 45 0 min 3 UV-I 327 W/m 8,0 km/h (2 Bft)
02.06.2007 15:00 20,2 C 61 % 1021,9 hPa 0,0 mm 3,2 km/h (1 Bft) O-NO 67 0 min 2 UV-I 287 W/m 9,7 km/h (2 Bft)
02.06.2007 15:10 20,2 C 60 % 1021,8 hPa 0,0 mm 1,6 km/h (1 Bft) W 270 0 min 3 UV-I 346 W/m 4,8 km/h (1 Bft)
02.06.2007 15:20 20,3 C 62 % 1021,8 hPa 0,0 mm 1,6 km/h (1 Bft) O 90 10 min 6 UV-I 443 W/m 6,4 km/h (2 Bft)
02.06.2007 15:30 21,0 C 57 % 1021,9 hPa 0,0 mm 3,2 km/h (1 Bft) O-NO 67 10 min 5 UV-I 503 W/m 9,7 km/h (2 Bft)
02.06.2007 15:40 21,0 C 57 % 1021,9 hPa 0,0 mm 1,6 km/h (1 Bft) O-NO 67 10 min 4 UV-I 548 W/m 8,0 km/h (2 Bft)
02.06.2007 15:50 20,9 C 59 % 1021,9 hPa 0,0 mm 1,6 km/h (1 Bft) O 90 10 min 3 UV-I 418 W/m 4,8 km/h (1 Bft)
02.06.2007 16:00 20,6 C 60 % 1021,9 hPa 0,0 mm 1,6 km/h (1 Bft) NW 315 0 min 1 UV-I 172 W/m 8,0 km/h (2 Bft)
02.06.2007 16:10 20,2 C 61 % 1021,9 hPa 0,0 mm 1,6 km/h (1 Bft) SW 225 0 min 2 UV-I 209 W/m 6,4 km/h (2 Bft)
02.06.2007 16:20 20,1 C 61 % 1021,8 hPa 0,0 mm 1,6 km/h (1 Bft) O 90 0 min 2 UV-I 315 W/m 6,4 km/h (2 Bft)
02.06.2007 16:30 20,2 C 61 % 1021,7 hPa 0,0 mm 1,6 km/h (1 Bft) O 90 0 min 2 UV-I 357 W/m 6,4 km/h (2 Bft)
02.06.2007 16:40 20,4 C 60 % 1021,7 hPa 0,0 mm 1,6 km/h (1 Bft) O-SO 112 0 min 2 UV-I 311 W/m 6,4 km/h (2 Bft)
02.06.2007 16:50 20,4 C 62 % 1021,6 hPa 0,0 mm 1,6 km/h (1 Bft) O-NO 67 10 min 2 UV-I 359 W/m 6,4 km/h (2 Bft)
02.06.2007 17:00 20,6 C 60 % 1021,6 hPa 0,0 mm 1,6 km/h (1 Bft) O-NO 67 0 min 2 UV-I 325 W/m 6,4 km/h (2 Bft)
02.06.2007 17:10 20,6 C 62 % 1021,7 hPa 0,0 mm 1,6 km/h (1 Bft) O-NO 67 0 min 1 UV-I 207 W/m 4,8 km/h (1 Bft)
02.06.2007 17:20 20,3 C 61 % 1021,7 hPa 0,0 mm 1,6 km/h (1 Bft) O-NO 67 0 min 1 UV-I 158 W/m 8,0 km/h (2 Bft)
02.06.2007 17:30 20,1 C 62 % 1021,6 hPa 0,0 mm 1,6 km/h (1 Bft) O 90 0 min 1 UV-I 156 W/m 4,8 km/h (1 Bft)
02.06.2007 17:40 20,0 C 62 % 1021,7 hPa 0,0 mm 1,6 km/h (1 Bft) O-NO 67 0 min 1 UV-I 130 W/m 6,4 km/h (2 Bft)
02.06.2007 17:50 19,9 C 63 % 1021,6 hPa 0,0 mm 1,6 km/h (1 Bft) O-NO 67 0 min 1 UV-I 105 W/m 6,4 km/h (2 Bft)
02.06.2007 18:00 19,8 C 63 % 1021,6 hPa 0,0 mm 1,6 km/h (1 Bft) O-NO 67 0 min 1 UV-I 93 W/m 8,0 km/h (2 Bft)
02.06.2007 18:10 19,8 C 64 % 1021,6 hPa 0,0 mm 1,6 km/h (1 Bft) O-NO 67 0 min 1 UV-I 93 W/m 8,0 km/h (2 Bft)
02.06.2007 18:20 19,7 C 65 % 1021,7 hPa 0,0 mm 0,0 km/h (0 Bft) O 90 0 min 0 UV-I 84 W/m 4,8 km/h (1 Bft)
02.06.2007 18:30 19,7 C 65 % 1021,6 hPa 0,0 mm 0,0 km/h (0 Bft) O 90 0 min 0 UV-I 76 W/m 4,8 km/h (1 Bft)
02.06.2007 18:40 19,6 C 65 % 1021,7 hPa 0,0 mm 0,0 km/h (0 Bft) O 90 0 min 0 UV-I 74 W/m 4,8 km/h (1 Bft)
02.06.2007 18:50 19,6 C 65 % 1021,8 hPa 0,0 mm 1,6 km/h (1 Bft) NO 45 0 min 0 UV-I 63 W/m 6,4 km/h (2 Bft)
02.06.2007 19:00 19,5 C 65 % 1021,8 hPa 0,0 mm 1,6 km/h (1 Bft) O-NO 67 0 min 0 UV-I 62 W/m 6,4 km/h (2 Bft)
02.06.2007 19:10 19,4 C 64 % 1021,8 hPa 0,0 mm 1,6 km/h (1 Bft) O 90 0 min 0 UV-I 44 W/m 6,4 km/h (2 Bft)
02.06.2007 19:20 19,2 C 66 % 1021,7 hPa 0,0 mm 1,6 km/h (1 Bft) O 90 0 min 0 UV-I 25 W/m 4,8 km/h (1 Bft)
02.06.2007 19:30 19,0 C 66 % 1021,7 hPa 0,0 mm 0,0 km/h (0 Bft) O-SO 112 0 min 0 UV-I 32 W/m 3,2 km/h (1 Bft)
02.06.2007 19:40 18,9 C 67 % 1021,7 hPa 0,0 mm 0,0 km/h (0 Bft) NO 45 0 min 0 UV-I 32 W/m 3,2 km/h (1 Bft)
02.06.2007 19:50 18,9 C 67 % 1021,7 hPa 0,0 mm 0,0 km/h (0 Bft) NO 45 0 min 0 UV-I 28 W/m 4,8 km/h (1 Bft)
02.06.2007 20:00 18,8 C 66 % 1021,7 hPa 0,0 mm 0,0 km/h (0 Bft) O-NO 67 0 min 0 UV-I 28 W/m 3,2 km/h (1 Bft)
02.06.2007 20:10 18,8 C 67 % 1021,8 hPa 0,0 mm 0,0 km/h (0 Bft) O-NO 67 0 min 0 UV-I 25 W/m 4,8 km/h (1 Bft)
02.06.2007 20:20 18,8 C 67 % 1021,8 hPa 0,0 mm 1,6 km/h (1 Bft) O-NO 67 0 min 0 UV-I 23 W/m 4,8 km/h (1 Bft)
02.06.2007 20:30 18,7 C 69 % 1021,9 hPa 0,0 mm 1,6 km/h (1 Bft) O-NO 67 0 min 0 UV-I 14 W/m 6,4 km/h (2 Bft)
02.06.2007 20:40 18,5 C 70 % 1021,9 hPa 0,0 mm 1,6 km/h (1 Bft) O-NO 67 0 min 0 UV-I 9 W/m 3,2 km/h (1 Bft)
02.06.2007 20:50 18,3 C 71 % 1021,9 hPa 0,0 mm 0,0 km/h (0 Bft) NO 45 0 min 0 UV-I 9 W/m 1,6 km/h (1 Bft)
02.06.2007 21:00 18,2 C 72 % 1021,9 hPa 0,0 mm 1,6 km/h (1 Bft) O 90 0 min 0 UV-I 7 W/m 4,8 km/h (1 Bft)
02.06.2007 21:10 17,9 C 73 % 1022,0 hPa 0,0 mm 0,0 km/h (0 Bft) O 90 0 min 0 UV-I 5 W/m 4,8 km/h (1 Bft)
02.06.2007 21:20 17,7 C 74 % 1021,9 hPa 0,0 mm 0,0 km/h (0 Bft) O-NO 67 0 min 0 UV-I 0 W/m 3,2 km/h (1 Bft)
02.06.2007 21:30 17,7 C 75 % 1022,1 hPa 0,0 mm 0,0 km/h (0 Bft) O 90 0 min 0 UV-I 0 W/m 3,2 km/h (1 Bft)
02.06.2007 21:40 17,5 C 76 % 1022,1 hPa 0,0 mm 0,0 km/h (0 Bft) O 90 0 min 0 UV-I 0 W/m 4,8 km/h (1 Bft)
02.06.2007 21:50 17,4 C 77 % 1022,2 hPa 0,0 mm 0,0 km/h (0 Bft) O 90 0 min 0 UV-I 0 W/m 1,6 km/h (1 Bft)
02.06.2007 22:00 17,3 C 77 % 1022,2 hPa 0,0 mm 0,0 km/h (0 Bft) O 90 0 min 0 UV-I 0 W/m 3,2 km/h (1 Bft)
02.06.2007 22:10 17,1 C 78 % 1022,3 hPa 0,0 mm 0,0 km/h (0 Bft) O 90 0 min 0 UV-I 0 W/m 3,2 km/h (1 Bft)
02.06.2007 22:20 16,9 C 79 % 1022,2 hPa 0,0 mm 0,0 km/h (0 Bft) O 90 0 min 0 UV-I 0 W/m 1,6 km/h (1 Bft)
02.06.2007 22:30 16,7 C 80 % 1022,2 hPa 0,0 mm 0,0 km/h (0 Bft) N 0 0 min 0 UV-I 0 W/m 0,0 km/h (0 Bft)
02.06.2007 22:40 16,5 C 82 % 1022,3 hPa 0,0 mm 0,0 km/h (0 Bft) O 90 0 min 0 UV-I 0 W/m 1,6 km/h (1 Bft)
02.06.2007 22:50 16,5 C 82 % 1022,3 hPa 0,0 mm 0,0 km/h (0 Bft) O 90 0 min 0 UV-I 0 W/m 1,6 km/h (1 Bft)
02.06.2007 23:00 16,4 C 82 % 1022,4 hPa 0,0 mm 0,0 km/h (0 Bft) N 0 0 min 0 UV-I 0 W/m 0,0 km/h (0 Bft)
02.06.2007 23:10 16,4 C 83 % 1022,4 hPa 0,0 mm 0,0 km/h (0 Bft) N 0 0 min 0 UV-I 0 W/m 0,0 km/h (0 Bft)
02.06.2007 23:20 16,3 C 83 % 1022,3 hPa 0,0 mm 0,0 km/h (0 Bft) O 90 0 min 0 UV-I 0 W/m 1,6 km/h (1 Bft)
02.06.2007 23:30 16,2 C 83 % 1022,3 hPa 0,0 mm 0,0 km/h (0 Bft) O 90 0 min 0 UV-I 0 W/m 1,6 km/h (1 Bft)
02.06.2007 23:40 16,3 C 83 % 1022,4 hPa 0,0 mm 0,0 km/h (0 Bft) N 0 0 min 0 UV-I 0 W/m 0,0 km/h (0 Bft)
02.06.2007 23:50 16,3 C 83 % 1022,5 hPa 0,0 mm 0,0 km/h (0 Bft) O 90 0 min 0 UV-I 0 W/m 1,6 km/h (1 Bft)
_ Min-Zeit 02:40 10:10 00:00 - 00:00 - - - - - 00:00
Minimum _ 12,6 C 53 % 1018,3 hPa - 0,0 km/h (0 Bft) - - - - - 0,0 km/h (0 Bft)
_ Max-Zeit 14:10 02:30 23:50 00:00 09:50 - - 05:30 12:30 10:40 10:30
Maximum _ 21,1 C 85 % 1022,5 hPa 0,0 mm 3,2 km/h
O (1 Bft)
- - 10 min 7 UV-I 817 W/m 16,1 km/h
N (3 Bft)
Durchschnitt _ 17,1 C 71 % 1021,2 hPa #0,0 mm 0,8 km/h (0 Bft) O-NO - #6:10 h 3 UV-I 294 W/m 3,5 km/h (1 Bft)